User: anonymous   Login
Location: Unspecified
(0.0000°N, 0.0000°E)
Time: 05:32:16
(UTC+00:00)
Language:

PAYLOAD B - Orbit

View from above orbital plane
View from above orbital plane
View from above satellite
View from above satellite

Ground track
Ground track

The orbit data is extracted from the following two-line orbital elements,

1 27056U 01058B   17177.87079519 -.00000015 +00000-0 -14467-3 0  9996
2 27056 082.5357 155.6514 0007123 064.3486 295.8345 12.60506430713030
Epoch (UTC): 26 June 2017 20:53:56
Eccentricity: 0.0007123
inclination: 82.5357°
perigee height: 1415 km
apogee height: 1426 km
right ascension of ascending node: 155.6514°
argument of perigee: 64.3486°
revolutions per day: 12.60506430
mean anomaly at epoch: 295.8345°
orbit number at epoch: 71303

The dashed part of the orbit path shows where the satellite is in the earth's shadow,  

DLR